Location: Ellerstadt
(49.4644°N, 8.2615°E)
Time: 13:17:04
(UTC+00:00)

SR - Visible Passes

Search period start: 22 June 2021 00:00
Search period end: 02 July 2021 00:00
Orbit: 575 x 880 km, 66.7° (Epoch: 21 June)

Date Brightness Start Highest point End Pass type
(mag) Time Alt. Az. Time Alt. Az. Time Alt. Az.
22 Jun ? 00:20:56 10° NW 00:26:08 55° WSW 00:28:49 25° S visible
22 Jun ? 21:49:06 10° NNW 21:53:26 23° NNE 21:57:30 10° E visible
22 Jun ? 23:31:00 10° NW 23:36:24 83° NE 23:39:39 22° SE visible
23 Jun ? 01:14:26 10° WNW 01:17:40 17° WSW 01:19:00 15° SW visible
23 Jun ? 20:59:20 10° NNW 21:03:00 18° NNE 21:06:28 10° ENE visible
23 Jun ? 22:41:12 10° NNW 22:46:27 49° NE 22:50:35 14° ESE visible
24 Jun ? 00:23:43 10° NW 00:28:19 31° WSW 00:29:56 25° SSW visible
24 Jun ? 21:51:27 10° NNW 21:56:18 31° NE 22:00:45 10° E visible
24 Jun ? 23:33:33 10° NW 23:38:45 59° WSW 23:40:55 31° S visible
25 Jun ? 21:01:45 10° NNW 21:05:59 22° NNE 21:09:58 10° E visible
25 Jun ? 22:43:38 10° NW 22:49:00 79° NE 22:51:59 24° SE visible
26 Jun ? 00:26:57 10° WNW 00:30:19 18° WSW 00:31:21 17° WSW visible
26 Jun ? 21:53:50 10° NNW 21:59:01 46° NE 22:03:06 14° ESE visible
26 Jun ? 23:36:18 10° NW 23:40:56 33° WSW 23:42:27 27° SSW visible
27 Jun ? 21:04:06 10° NNW 21:08:52 30° NE 21:13:14 10° E visible
27 Jun ? 22:46:10 10° NW 22:51:22 62° WSW 22:53:38 31° S visible
28 Jun ? 20:14:24 10° NNW 20:18:32 21° NNE 20:22:24 10° ENE visible
28 Jun ? 21:56:15 10° NW 22:01:35 74° NE 22:04:50 21° SE visible
28 Jun ? 23:39:27 10° WNW 23:42:58 19° WSW 23:44:12 17° SW visible
29 Jun ? 21:06:28 10° NNW 21:11:36 44° NE 21:16:05 11° ESE visible
29 Jun ? 22:48:53 10° NW 22:53:34 35° WSW 22:55:27 26° SSW visible
30 Jun ? 20:16:45 10° NNW 20:21:25 29° NE 20:25:43 10° E visible
30 Jun ? 21:58:46 10° NW 22:03:59 66° WSW 22:06:44 25° SSE visible
01 Jul ? 21:08:53 10° NNW 21:14:10 70° NE 21:18:04 16° SE visible
01 Jul ? 22:51:58 10° WNW 22:55:37 20° WSW 22:57:27 16° SW visible
